Location: Shepherdstown, WV
(39.4326°N, 77.8042°W)
Time: 03:50:41
(UTC-04:00)

Vanguard 1 - Pass Details

Date: 28 September 2021
Orbit: 653 x 3829 km, 34.2° (Epoch: 18 October)

Event Time Altitude Azimuth Distance (km) Brightness Sun altitude
Rises 02:51:58 0° 285° (WNW) 7,826 14.5 -45.1°
Enters shadow 02:56:40 - 279° (W) 7,162 14.2 -44.5°
Exits shadow 03:33:16 - 169° (S) 6,006 13.8 -39.3°
Sets 03:34:44 0° 166° (SSE) 6,204 14.0 -39.1°
